EHI
3 2 1 0 0 0 0 0 0 0 0 0 0 0 0 0 0 0 0 0 1 3 4 5 4 4 3 3 3 2 1 1 0 0 0 0 0 0 0 0 0 0 0
3 3 1 0 0 0 0 0 0 0 0 0 0 0 0 0 0 0 0 1 2 3 4 4 4 4 4 3 3 3 2 2 1 0 0 0 0 0 0 0 0 0 0
3 2 1 0 0 0 0 0 0 0 0 0 0 0 0 0 0 0 0 1 2 2 2 3 4 5 5 4 3 3 3 3 2 1 1 0 0 0 0 0 0 0 0
2 1 1 1 0 0 0 0 0 0 0 0 0 0 0 0 0 0 0 1 1 1 1 3 5 6 6 5 4 4 3 3 3 3 2 1 1 0 0 0 0 0 0
1 0 1 2 1 0 0 0 0 0 0 0 0 0 0 0 0 0 0 0 0 0 0 2 5 6 6 5 5 5 4 4 3 3 3 3 2 1 0 0 0 0 0
1 1 3 3 2 1 1 0 0 0 0 0 0 0 0 0 0 0 0 0 0 0 0 1 3 4 5 5 6 6 6 5 4 4 3 3 3 2 1 0 0 0 0
2 3 4 4 3 2 1 0 0 0 0 0 0 0 0 0 0 0 0 0 0 0 0 0 1 2 2 3 5 6 6 6 6 5 4 3 3 3 2 1 0 0 0
3 3 3 4 4 2 1 0 0 0 0 0 0 0 0 0 0 0 0 0 0 0 0 0 0 0 0 1 2 3 5 6 6 6 5 4 4 3 3 2 1 1 0
4 3 2 2 2 1 0 0 0 0 0 0 0 0 0 0 0 0 0 0 0 0 0 0 0 0 0 0 0 1 3 4 4 5 6 6 6 4 3 3 3 2 1
4 4 3 2 2 1 0 0 0 0 0 0 0 0 0 0 0 0 0 0 0 0 0 0 0 0 0 0 0 1 2 3 3 4 5 6 6 6 4 3 3 2 2
4 4 4 4 3 2 1 1 1 0 1 1 1 0 0 0 0 0 0 0 0 0 0 0 0 0 0 0 0 0 1 1 2 3 4 4 5 5 5 4 3 2 1
4 4 4 5 5 4 3 2 2 1 1 2 2 1 0 0 0 0 0 0 0 0 0 0 0 0 0 0 0 0 0 0 1 2 3 3 3 4 5 5 4 2 1
5 5 6 7 7 6 4 3 3 2 2 2 2 1 1 0 0 0 0 0 0 0 0 0 0 0 0 0 0 0 0 0 0 1 1 2 2 3 4 4 4 2 2
7 7 8 8 8 7 5 3 3 2 2 2 1 1 1 0 0 0 0 0 0 0 0 0 0 0 0 0 0 0 0 0 0 0 0 1 1 1 2 2 2 1 1
6 6 7 8 8 8 6 3 2 3 3 2 1 0 1 1 1 0 0 0 0 0 0 0 0 0 0 0 0 0 0 0 0 0 0 0 0 0 1 1 0 0 0
5 5 6 8 8 8 6 4 2 2 3 2 1 0 1 2 2 1 0 0 0 0 0 0 0 0 0 0 0 0 0 0 0 0 0 0 0 0 0 0 0 0 0
5 5 6 6 6 5 4 3 3 2 1 1 1 0 1 2 3 1 0 0 0 0 0 0 0 0 0 0 0 0 0 0 0 0 0 0 0 0 0 0 0 0 0
4 4 4 4 2 2 2 2 2 1 0 0 0 0 1 2 2 1 1 0 0 0 0 0 0 0 0 0 0 0 0 0 0 0 0 0 0 0 0 0 0 0 0
3 3 3 2 1 0 1 1 1 0 0 0 0 0 0 1 1 1 1 1 0 0 0 0 1 1 1 0 0 0 0 0 0 0 0 0 0 0 0 0 0 0 0
3 3 3 2 1 0 0 0 0 0 0 0 0 0 0 0 0 0 0 0 0 0 0 1 2 2 1 0 0 0 0 0 0 0 0 0 0 0 0 0 0 0 0
5 4 3 3 1 0 0 0 0 0 0 0 0 0 0 0 0 0 0 0 0 0 1 2 3 3 1 0 0 0 0 0 0 0 0 0 0 0 0 0 0 0 0
7 6 4 3 2 1 0 0 0 0 0 0 0 0 0 0 0 0 0 0 0 0 1 2 3 2 1 0 0 0 0 0 0 0 0 0 1 0 0 0 0 0 0
7 7 5 4 2 1 0 0 0 0 0 0 0 0 0 0 0 0 0 0 0 0 1 2 2 1 0 0 0 0 0 0 0 0 0 0 0 0 0 0 0 0 0
7 7 6 4 2 1 0 0 0 0 0 0 0 0 0 0 0 0 0 0 0 0 0 1 1 0 0 0 0 0 0 0 0 0 0 0 0 0 0 0 0 0 0
6 7 6 4 2 1 0 0 0 0 0 0 0 0 0 0 0 0 0 0 0 0 0 0 0 0 0 0 0 0 0 0 0 0 0 0 0 0 0 0 0 0 0
6 6 6 4 2 2 1 0 0 0 0 0 0 0 0 0 0 0 0 0 0 0 0 0 0 0 0 0 0 0 0 0 0 0 1 1 1 1 1 0 0 0 0
Wind_Speed
1 1 1 1 2 1 0 0 1 1 1 2 2 3 2 2 2 1 1 5 7 8 9 10 10 9 9 8 8 8 7 7 6 6 6 6 5 5 5 5 5 5 6
1 1 1 1 1 1 1 0 1 2 2 2 2 2 2 2 2 2 1 2 6 8 8 8 9 8 8 8 7 7 7 6 6 6 6 5 5 5 5 5 5 5 5
1 1 0 0 1 1 1 1 2 2 3 3 2 2 2 2 2 2 2 2 3 5 7 7 7 7 7 7 6 6 6 6 5 5 5 5 5 5 5 5 5 5 5
0 0 1 0 0 0 1 2 2 3 3 3 2 2 2 2 2 2 2 2 2 2 4 6 6 6 6 6 6 6 6 6 5 5 5 4 4 5 5 4 5 5 5
1 1 1 1 1 1 2 2 2 2 3 3 3 3 2 2 2 2 3 2 2 2 2 4 5 5 5 4 4 5 5 5 5 5 5 4 4 4 4 4 4 4 5
1 1 1 1 2 2 2 2 3 3 2 3 3 4 3 2 2 2 2 2 2 2 2 2 2 2 3 3 3 3 4 4 5 5 5 4 4 5 4 4 4 4 4
1 1 1 2 2 2 2 3 3 3 2 2 3 3 3 3 3 2 1 2 2 2 2 2 1 1 1 2 2 2 3 3 4 4 4 4 4 4 5 4 4 4 4
2 1 1 1 1 2 2 2 3 2 1 2 2 2 2 2 2 2 2 1 1 1 2 2 2 1 1 1 1 2 2 2 2 3 3 4 4 4 4 4 4 4 4
2 2 2 1 1 1 1 1 2 3 2 1 1 2 2 1 0 2 2 1 1 1 1 1 1 1 2 1 1 2 2 2 2 2 2 3 3 4 4 3 3 3 4
2 2 2 2 1 1 1 1 2 2 2 1 1 1 1 2 2 1 1 1 1 1 1 1 1 1 2 2 2 2 2 2 2 2 2 2 2 3 4 4 4 4 5
2 2 1 1 1 1 1 1 1 2 1 2 2 1 2 2 2 2 1 0 1 0 0 1 1 1 2 2 2 2 2 2 2 2 3 3 3 3 3 4 4 4 5
1 2 1 1 1 1 1 1 1 2 1 2 2 1 2 2 2 2 2 1 0 1 1 1 2 2 2 2 3 3 3 3 3 2 3 3 3 3 4 4 4 4 4
1 1 1 1 1 0 1 1 1 1 1 2 2 1 1 1 2 2 3 2 0 1 1 1 1 1 2 2 2 3 3 3 3 2 2 2 2 3 3 3 3 3 3
1 0 0 0 1 1 1 1 1 0 1 1 1 1 1 1 2 2 3 3 1 0 1 1 1 1 1 2 2 3 2 2 2 2 2 3 3 3 3 3 3 4 4
0 0 0 0 0 1 1 1 1 0 1 1 1 1 1 1 1 2 2 3 3 2 1 1 1 1 1 2 2 2 2 2 2 2 2 2 2 3 3 3 4 4 4
0 0 0 0 0 0 1 1 1 0 1 0 1 1 1 0 1 1 2 2 2 2 2 2 2 2 2 1 1 2 2 2 3 3 2 2 2 2 3 3 3 3 4
1 1 1 1 1 0 0 1 1 0 1 0 0 1 1 1 1 1 1 2 2 2 2 2 1 1 1 2 1 1 2 2 2 3 3 2 2 2 3 3 3 3 4
0 1 0 0 1 1 1 1 1 0 1 1 1 1 1 1 2 1 2 2 2 2 2 2 1 1 1 2 1 1 1 1 2 2 3 2 2 2 2 3 3 4 4
0 0 0 1 1 1 1 1 1 1 1 2 2 2 2 2 2 2 2 2 2 2 2 2 2 1 1 1 1 1 1 1 2 1 2 2 2 3 3 3 4 4 5
1 1 1 1 2 1 1 1 1 1 1 1 2 2 3 3 3 3 3 3 2 2 2 2 2 1 1 1 1 1 1 1 1 1 1 1 2 3 3 3 4 4 5
1 1 1 1 1 2 2 2 2 2 2 2 1 2 2 3 4 3 3 3 3 2 2 2 2 1 1 2 2 2 2 1 2 1 1 1 1 2 2 3 4 5 5
1 1 1 2 2 2 2 2 2 2 2 2 2 2 2 2 3 3 4 5 5 4 4 3 2 3 3 3 2 2 2 1 2 1 2 2 1 2 2 2 3 4 5
1 1 2 1 2 3 2 2 3 2 2 3 3 2 2 2 2 2 3 4 4 5 6 5 4 5 4 4 3 3 3 3 3 2 2 2 2 3 3 3 4 5 5
1 2 2 2 2 2 2 2 2 2 2 2 2 2 2 3 3 3 2 2 3 4 5 5 5 6 5 4 5 4 3 2 2 2 3 2 2 3 2 2 4 5 6
1 2 2 2 2 3 2 1 2 1 1 2 2 2 2 3 3 3 3 3 3 3 4 5 6 5 5 5 4 3 3 2 2 2 3 3 2 2 2 2 2 4 5
1 1 1 1 2 2 1 1 2 1 1 1 2 2 3 3 3 2 3 3 4 4 2 2 2 2 3 3 5 5 5 4 2 2 3 3 2 1 2 1 1 1 2
Wind_Direction
315 325 336 352 346 344 16 78 117 114 99 93 97 102 107 97 99 87 88 126 137 143 145 148 145 147 148 146 147 145 148 152 153 155 158 157 160 161 161 164 168 170 168
276 296 325 352 341 333 346 43 143 134 119 100 87 91 101 109 98 96 83 121 132 138 141 146 147 146 146 147 149 152 153 154 154 156 159 160 159 161 164 169 174 178 180
242 232 188 112 312 337 22 47 70 97 111 101 87 82 90 98 109 102 96 96 131 141 140 142 144 144 148 151 155 156 158 158 158 159 159 160 160 162 167 173 180 184 187
194 188 156 153 217 86 76 73 65 82 88 93 90 84 83 88 102 102 99 102 108 127 137 137 139 141 151 158 163 164 164 162 161 164 163 162 166 169 172 172 178 185 190
53 95 103 106 100 86 74 86 74 84 95 91 87 80 79 83 93 107 111 112 112 112 123 136 140 144 151 154 166 170 168 164 165 163 164 166 169 173 174 171 169 180 189
55 89 85 80 86 91 80 78 86 76 87 94 87 72 63 71 71 83 109 109 113 122 121 128 133 134 140 156 175 172 172 174 172 171 174 173 173 175 178 173 170 177 188
68 86 77 74 82 98 108 109 95 85 69 76 85 70 50 58 63 59 80 101 113 122 123 134 139 141 156 150 152 164 175 183 182 182 184 183 174 177 185 178 178 183 186
65 77 78 91 97 104 103 102 100 93 64 62 97 96 61 34 32 43 63 100 112 114 129 145 155 159 168 168 149 167 164 166 173 182 182 178 175 173 178 188 191 195 193
66 72 65 83 96 109 131 134 130 129 130 57 63 121 133 170 46 20 40 68 92 106 132 144 169 180 179 172 194 193 171 149 162 170 163 171 181 181 184 192 203 203 200
45 67 78 80 86 104 130 169 149 143 140 136 64 48 105 136 138 107 10 16 62 119 164 183 191 193 186 186 197 197 186 179 181 182 170 170 185 200 207 213 219 217 204
35 42 63 79 90 115 158 148 129 129 140 148 145 129 101 79 94 132 157 346 12 338 232 225 217 213 202 201 206 213 205 199 204 209 208 203 208 210 222 223 226 227 215
19 22 51 59 73 78 105 148 139 138 142 138 143 148 148 141 153 143 160 175 252 315 310 250 226 227 215 209 214 206 204 199 202 217 225 219 222 226 235 224 230 235 229
358 337 30 67 67 74 90 97 110 132 154 153 162 162 161 166 150 145 145 151 139 332 329 287 248 227 212 204 214 208 207 201 199 210 220 223 224 234 233 230 231 235 239
235 262 96 85 67 58 62 75 83 85 119 150 158 156 152 169 161 158 156 153 142 13 331 286 282 235 222 212 215 203 221 216 214 217 222 229 227 233 241 240 234 230 230
250 338 121 112 64 71 81 99 83 47 98 118 164 161 155 182 170 171 165 166 163 186 255 261 264 259 243 224 212 196 214 218 213 210 212 228 237 239 240 246 243 235 231
220 48 66 137 159 106 106 114 99 173 137 166 178 158 174 185 169 156 164 174 176 180 216 239 246 257 250 244 212 210 219 212 204 204 209 216 244 258 256 252 248 244 236
171 188 233 209 216 220 151 141 200 195 177 206 207 186 217 179 179 159 159 164 169 169 207 253 247 259 234 250 255 238 220 214 223 220 215 216 236 265 279 271 260 250 243
178 192 205 184 213 193 155 159 204 212 202 224 239 224 237 202 199 180 182 190 187 187 193 234 249 239 237 236 238 231 224 226 240 231 219 221 226 244 270 276 268 256 249
353 272 197 221 234 212 174 183 201 220 215 224 224 220 230 212 215 210 200 200 201 193 193 204 240 236 239 219 212 242 228 250 254 242 226 230 243 251 264 274 270 259 248
229 257 245 238 230 211 207 215 213 229 234 242 233 226 224 218 219 218 212 208 197 187 183 197 236 243 230 212 198 225 255 248 267 275 271 250 245 253 259 267 271 262 246
251 254 259 266 251 216 217 217 224 232 235 254 261 251 241 237 228 215 210 205 195 194 187 198 226 236 226 208 216 216 229 264 268 248 252 254 253 260 269 265 260 249 240
273 256 262 261 256 251 248 233 222 228 227 231 252 267 267 261 243 232 225 211 199 198 202 202 217 228 238 231 215 208 201 216 257 221 224 258 233 257 263 253 254 244 239
270 259 266 262 258 261 252 241 222 212 220 228 235 246 263 272 251 243 243 240 233 228 211 205 219 231 230 220 206 211 212 217 233 219 199 255 247 260 261 253 242 237 235
251 262 276 276 269 264 239 228 212 201 218 234 241 240 245 267 262 238 229 237 243 241 229 222 226 237 238 223 207 209 209 222 255 240 204 237 245 251 266 265 247 234 230
266 261 260 266 272 282 275 202 165 177 220 261 269 262 253 257 264 240 216 229 253 265 251 230 230 238 242 227 198 175 183 197 247 244 202 217 240 256 264 265 257 230 229
250 261 278 282 275 281 286 196 156 170 225 272 282 275 267 262 265 242 228 226 246 265 272 269 252 249 243 234 208 203 201 204 223 241 201 202 225 234 269 258 261 239 224